SAS591 EFOU-ESSA

Flight info

Callsign SAS591
Flight time 1h 3m
Altitude 38000
Route IXONO T255 DIVEG DCT SUBUG DCT BAKLA DCT HMR
Aircraft B738/M-SDE2E3FGHIRWXY/LB1

Departure

Time 2026-05-09 04:26
Airport Oulu Airport (EFOU)

Arrival

Time 2026-05-09 05:30
Airport Stockholm-Arlanda Airport (ESSA)
Time Latitude Longitude Altitude Speed Heading
2026-05-09 04:12 64.92781 25.37459 49 ft 0 kts 29°
2026-05-09 04:17 64.92779 25.37457 49 ft 2 kts 29°
2026-05-09 04:17 64.92757 25.37429 49 ft 4 kts 23°
2026-05-09 04:18 64.92731 25.37409 47 ft 4 kts
2026-05-09 04:18 64.92707 25.37411 49 ft 4 kts 326°
2026-05-09 04:18 64.92699 25.37425 46 ft 1 kts 301°
2026-05-09 04:20 64.92701 25.37419 49 ft 2 kts 301°
2026-05-09 04:20 64.92718 25.37352 49 ft 8 kts 301°
2026-05-09 04:21 64.92757 25.37196 49 ft 14 kts 301°
2026-05-09 04:21 64.92817 25.36961 48 ft 19 kts 301°
2026-05-09 04:21 64.92977 25.36330 49 ft 23 kts 300°
2026-05-09 04:22 64.93059 25.36018 49 ft 22 kts 301°
2026-05-09 04:22 64.93136 25.35709 49 ft 21 kts 301°
2026-05-09 04:22 64.93212 25.35412 50 ft 21 kts 300°
2026-05-09 04:22 64.93285 25.35123 50 ft 20 kts 302°
2026-05-09 04:23 64.93357 25.34843 50 ft 20 kts 301°
2026-05-09 04:23 64.93404 25.34658 50 ft 19 kts 300°
2026-05-09 04:23 64.93471 25.34393 50 ft 19 kts 301°
2026-05-09 04:23 64.93537 25.34136 48 ft 18 kts 301°
2026-05-09 04:24 64.93599 25.33887 49 ft 17 kts 300°
2026-05-09 04:24 64.93658 25.33653 49 ft 13 kts 300°
2026-05-09 04:24 64.93686 25.33535 50 ft 9 kts 299°
2026-05-09 04:24 64.93709 25.33386 50 ft 11 kts 268°
2026-05-09 04:25 64.93661 25.33274 50 ft 11 kts 191°
2026-05-09 04:25 64.93589 25.33272 50 ft 10 kts 170°
2026-05-09 04:25 64.93542 25.33356 49 ft 0 kts 121°
2026-05-09 04:25 64.93508 25.33492 49 ft 37 kts 121°
2026-05-09 04:26 64.93235 25.34546 49 ft 109 kts 121°
2026-05-09 04:26 64.92744 25.36471 119 ft 159 kts 122°
2026-05-09 04:26 64.92172 25.38872 633 ft 178 kts 121°
2026-05-09 04:26 64.91551 25.41640 1098 ft 202 kts 121°
2026-05-09 04:27 64.90861 25.44609 1704 ft 206 kts 130°
2026-05-09 04:27 64.89790 25.46697 2456 ft 199 kts 161°
2026-05-09 04:27 64.88448 25.47308 3149 ft 199 kts 185°
2026-05-09 04:27 64.87091 25.46697 3706 ft 201 kts 206°
2026-05-09 04:28 64.85841 25.44901 3987 ft 225 kts 218°
2026-05-09 04:28 64.84520 25.42758 4714 ft 231 kts 216°
2026-05-09 04:28 64.83149 25.40665 5476 ft 239 kts 215°
2026-05-09 04:28 64.81746 25.38510 6245 ft 245 kts 219°
2026-05-09 04:29 64.80578 25.35553 6952 ft 249 kts 234°
2026-05-09 04:29 64.79560 25.32246 7689 ft 256 kts 237°
2026-05-09 04:29 64.78557 25.28770 8345 ft 264 kts 237°
2026-05-09 04:29 64.77496 25.25142 9148 ft 268 kts 236°
2026-05-09 04:30 64.76430 25.21595 9947 ft 271 kts 236°
2026-05-09 04:30 64.75320 25.17997 10672 ft 277 kts 235°
2026-05-09 04:30 64.74130 25.14203 10912 ft 300 kts 234°
2026-05-09 04:30 64.72836 25.10133 11100 ft 323 kts 234°
2026-05-09 04:31 64.71442 25.05800 11280 ft 344 kts 234°
2026-05-09 04:31 64.69964 25.01242 11650 ft 357 kts 234°
2026-05-09 04:31 64.68455 24.96619 12375 ft 359 kts 234°
2026-05-09 04:31 64.66931 24.91968 13091 ft 362 kts 234°
2026-05-09 04:32 64.65392 24.87275 13795 ft 366 kts 234°
2026-05-09 04:32 64.63831 24.82526 14470 ft 370 kts 235°
2026-05-09 04:32 64.62255 24.77741 15132 ft 374 kts 235°
2026-05-09 04:32 64.60662 24.72918 15819 ft 377 kts 235°
2026-05-09 04:33 64.59002 24.68150 16505 ft 382 kts 228°
2026-05-09 04:33 64.56902 24.64252 17153 ft 390 kts 218°
2026-05-09 04:33 64.54652 24.60629 17786 ft 395 kts 218°
2026-05-09 04:33 64.52376 24.57003 18408 ft 399 kts 218°
2026-05-09 04:34 64.50082 24.53336 19044 ft 400 kts 218°
2026-05-09 04:34 64.47789 24.49646 19654 ft 402 kts 218°
2026-05-09 04:34 64.45490 24.45921 20204 ft 405 kts 219°
2026-05-09 04:34 64.43176 24.42157 20740 ft 408 kts 219°
2026-05-09 04:35 64.40843 24.38359 21280 ft 411 kts 219°
2026-05-09 04:35 64.38495 24.34539 21817 ft 414 kts 219°
2026-05-09 04:35 64.36132 24.30699 22343 ft 416 kts 219°
2026-05-09 04:35 64.33752 24.26841 22847 ft 419 kts 219°
2026-05-09 04:36 64.31357 24.22967 23338 ft 422 kts 219°
2026-05-09 04:36 64.28976 24.19123 23813 ft 425 kts 219°
2026-05-09 04:36 64.26547 24.15212 24227 ft 428 kts 219°
2026-05-09 04:36 64.24105 24.11288 24615 ft 429 kts 218°
2026-05-09 04:37 64.21647 24.07350 25032 ft 430 kts 218°
2026-05-09 04:37 64.19187 24.03416 25436 ft 432 kts 218°
2026-05-09 04:37 64.16712 23.99467 25822 ft 434 kts 218°
2026-05-09 04:37 64.14230 23.95514 26199 ft 435 kts 218°
2026-05-09 04:38 64.11737 23.91551 26564 ft 437 kts 218°
2026-05-09 04:38 64.09235 23.87585 26927 ft 439 kts 218°
2026-05-09 04:38 64.06716 23.83599 27274 ft 440 kts 218°
2026-05-09 04:38 64.04195 23.79615 27610 ft 442 kts 218°
2026-05-09 04:39 64.01659 23.75620 27953 ft 443 kts 218°
2026-05-09 04:39 63.99120 23.71627 28319 ft 443 kts 218°
2026-05-09 04:39 63.96698 23.67340 28778 ft 439 kts 224°
2026-05-09 04:39 63.94430 23.62724 29279 ft 436 kts 225°
2026-05-09 04:40 63.92203 23.58084 29788 ft 433 kts 226°
2026-05-09 04:40 63.89985 23.53456 30272 ft 432 kts 226°
2026-05-09 04:40 63.87771 23.48865 30673 ft 431 kts 226°
2026-05-09 04:40 63.85554 23.44308 31073 ft 429 kts 225°
2026-05-09 04:41 63.83342 23.39796 31477 ft 427 kts 225°
2026-05-09 04:41 63.81133 23.35314 31872 ft 426 kts 225°
2026-05-09 04:41 63.78930 23.30862 32247 ft 424 kts 225°
2026-05-09 04:41 63.76732 23.26435 32635 ft 423 kts 225°
2026-05-09 04:42 63.74539 23.22027 33032 ft 421 kts 225°
2026-05-09 04:42 63.72350 23.17636 33299 ft 421 kts 224°
2026-05-09 04:42 63.70154 23.13240 33555 ft 423 kts 224°
2026-05-09 04:42 63.67955 23.08846 33910 ft 421 kts 224°
2026-05-09 04:43 63.65769 23.04488 34327 ft 419 kts 224°
2026-05-09 04:43 63.63591 23.00156 34622 ft 418 kts 224°
2026-05-09 04:43 63.61404 22.95814 34793 ft 420 kts 224°
2026-05-09 04:43 63.59204 22.91455 34971 ft 422 kts 224°
2026-05-09 04:44 63.57002 22.87101 35211 ft 422 kts 224°
2026-05-09 04:44 63.54799 22.82756 35452 ft 422 kts 224°
2026-05-09 04:44 63.52618 22.78463 35647 ft 423 kts 224°
2026-05-09 04:44 63.50402 22.74111 35849 ft 424 kts 224°
2026-05-09 04:45 63.48179 22.69753 36035 ft 425 kts 223°
2026-05-09 04:45 63.45944 22.65379 36160 ft 428 kts 223°
2026-05-09 04:45 63.43699 22.60994 36372 ft 428 kts 223°
2026-05-09 04:45 63.41457 22.56629 36636 ft 427 kts 223°
2026-05-09 04:46 63.39199 22.52313 36847 ft 428 kts 221°
2026-05-09 04:46 63.36847 22.48199 37021 ft 430 kts 219°
2026-05-09 04:46 63.34451 22.44199 37224 ft 431 kts 219°
2026-05-09 04:46 63.32040 22.40211 37448 ft 431 kts 219°
2026-05-09 04:47 63.29639 22.36219 37626 ft 432 kts 219°
2026-05-09 04:47 63.27239 22.32195 37812 ft 432 kts 219°
2026-05-09 04:47 63.24844 22.28168 38020 ft 432 kts 219°
2026-05-09 04:47 63.22445 22.24139 38192 ft 433 kts 219°
2026-05-09 04:48 63.20046 22.20103 38341 ft 434 kts 219°
2026-05-09 04:48 63.15210 22.11970 38372 ft 436 kts 219°
2026-05-09 04:49 63.10395 22.03908 38373 ft 433 kts 219°
2026-05-09 04:49 63.05606 21.95924 38376 ft 430 kts 219°
2026-05-09 04:50 63.00837 21.88007 38375 ft 428 kts 219°
2026-05-09 04:50 62.96110 21.80188 38378 ft 427 kts 219°
2026-05-09 04:51 62.91353 21.72355 38377 ft 427 kts 219°
2026-05-09 04:51 62.86531 21.64672 38377 ft 429 kts 218°
2026-05-09 04:52 62.81660 21.57077 38379 ft 431 kts 218°
2026-05-09 04:52 62.76776 21.49454 38379 ft 432 kts 218°
2026-05-09 04:53 62.71871 21.41806 38360 ft 434 kts 218°
2026-05-09 04:53 62.66947 21.34163 38378 ft 435 kts 218°
2026-05-09 04:54 62.62048 21.26570 38374 ft 436 kts 217°
2026-05-09 04:54 62.57103 21.18930 38373 ft 436 kts 217°
2026-05-09 04:55 62.52151 21.11309 38381 ft 437 kts 217°
2026-05-09 04:55 62.47195 21.03716 38379 ft 436 kts 217°
2026-05-09 04:56 62.42244 20.96164 38378 ft 436 kts 217°
2026-05-09 04:56 62.37288 20.88631 38387 ft 435 kts 217°
2026-05-09 04:57 62.32336 20.81136 38375 ft 435 kts 217°
2026-05-09 04:57 62.27377 20.73661 38378 ft 435 kts 217°
2026-05-09 04:58 62.22418 20.66218 38374 ft 434 kts 217°
2026-05-09 04:58 62.17498 20.58864 38362 ft 434 kts 216°
2026-05-09 04:59 62.12543 20.51486 38372 ft 433 kts 216°
2026-05-09 04:59 62.07590 20.44141 38378 ft 433 kts 216°
2026-05-09 05:00 62.02632 20.36820 38378 ft 433 kts 216°
2026-05-09 05:00 61.97671 20.29522 38383 ft 434 kts 216°
2026-05-09 05:01 61.92701 20.22240 38372 ft 434 kts 216°
2026-05-09 05:01 61.87729 20.14986 38382 ft 434 kts 216°
2026-05-09 05:02 61.82746 20.07745 38375 ft 434 kts 216°
2026-05-09 05:02 61.77759 20.00526 38375 ft 435 kts 216°
2026-05-09 05:03 61.72767 19.93329 38376 ft 435 kts 216°
2026-05-09 05:03 61.67765 19.86145 38358 ft 435 kts 216°
2026-05-09 05:04 61.62757 19.78983 38369 ft 435 kts 215°
2026-05-09 05:04 61.57744 19.71841 38376 ft 435 kts 215°
2026-05-09 05:05 61.52720 19.64713 38380 ft 436 kts 215°
2026-05-09 05:05 61.47693 19.57607 38377 ft 436 kts 215°
2026-05-09 05:06 61.42660 19.50518 38267 ft 438 kts 215°
2026-05-09 05:06 61.40113 19.46939 37730 ft 441 kts 215°
2026-05-09 05:06 61.37606 19.43430 37143 ft 437 kts 214°
2026-05-09 05:06 61.34984 19.40106 36623 ft 434 kts 208°
2026-05-09 05:07 61.32271 19.37407 36082 ft 431 kts 206°
2026-05-09 05:07 61.29582 19.34836 35427 ft 431 kts 206°
2026-05-09 05:07 61.26854 19.32250 34767 ft 431 kts 206°
2026-05-09 05:07 61.24126 19.29655 34032 ft 430 kts 206°
2026-05-09 05:08 61.21407 19.27054 33252 ft 429 kts 206°
2026-05-09 05:08 61.18701 19.24453 32522 ft 427 kts 206°
2026-05-09 05:08 61.16008 19.21856 31783 ft 426 kts 206°
2026-05-09 05:08 61.13322 19.19264 31016 ft 425 kts 205°
2026-05-09 05:09 61.10643 19.16681 30197 ft 425 kts 205°
2026-05-09 05:09 61.07960 19.14098 29300 ft 424 kts 205°
2026-05-09 05:09 61.05289 19.11531 28430 ft 423 kts 205°
2026-05-09 05:09 61.02618 19.08970 27643 ft 422 kts 205°
2026-05-09 05:10 60.99982 19.06447 27024 ft 416 kts 205°
2026-05-09 05:10 60.97369 19.03950 26418 ft 411 kts 205°
2026-05-09 05:10 60.94782 19.01483 25793 ft 409 kts 205°
2026-05-09 05:10 60.92212 18.99037 25184 ft 405 kts 205°
2026-05-09 05:11 60.90520 18.97429 24784 ft 405 kts 205°
2026-05-09 05:11 60.87037 18.94124 23978 ft 422 kts 205°
2026-05-09 05:11 60.84396 18.91623 23227 ft 423 kts 205°
2026-05-09 05:11 60.81741 18.89114 22575 ft 417 kts 205°
2026-05-09 05:12 60.79127 18.86649 21940 ft 411 kts 205°
2026-05-09 05:12 60.76544 18.84217 21317 ft 406 kts 205°
2026-05-09 05:12 60.74818 18.82595 20895 ft 403 kts 205°
2026-05-09 05:12 60.72282 18.80214 20289 ft 399 kts 205°
2026-05-09 05:13 60.69806 18.77894 19698 ft 395 kts 205°
2026-05-09 05:13 60.67318 18.75566 19107 ft 392 kts 205°
2026-05-09 05:13 60.64852 18.73263 18495 ft 389 kts 205°
2026-05-09 05:13 60.62402 18.70978 17828 ft 386 kts 205°
2026-05-09 05:14 60.59973 18.68717 17213 ft 381 kts 205°
2026-05-09 05:14 60.57575 18.66488 16622 ft 377 kts 205°
2026-05-09 05:14 60.55193 18.64278 16033 ft 374 kts 205°
2026-05-09 05:14 60.52839 18.62097 15458 ft 370 kts 205°
2026-05-09 05:15 60.50501 18.59935 14889 ft 367 kts 205°
2026-05-09 05:15 60.48182 18.57793 14326 ft 365 kts 204°
2026-05-09 05:15 60.45885 18.55675 13719 ft 362 kts 204°
2026-05-09 05:15 60.43595 18.53566 13108 ft 359 kts 204°
2026-05-09 05:16 60.41327 18.51481 12546 ft 356 kts 204°
2026-05-09 05:16 60.39086 18.49423 12001 ft 352 kts 204°
2026-05-09 05:16 60.36860 18.47383 11468 ft 350 kts 204°
2026-05-09 05:16 60.34684 18.45390 11309 ft 336 kts 204°
2026-05-09 05:17 60.32589 18.43474 11162 ft 324 kts 203°
2026-05-09 05:17 60.30568 18.41634 11021 ft 313 kts 203°
2026-05-09 05:17 60.28609 18.39870 10889 ft 303 kts 201°
2026-05-09 05:17 60.26611 18.38873 10733 ft 292 kts 184°
2026-05-09 05:18 60.24612 18.38596 10617 ft 283 kts 183°
2026-05-09 05:18 60.22678 18.38355 10483 ft 275 kts 182°
2026-05-09 05:18 60.20801 18.38114 10330 ft 267 kts 182°
2026-05-09 05:18 60.18948 18.37867 10031 ft 266 kts 183°
2026-05-09 05:19 60.17109 18.37610 9749 ft 264 kts 183°
2026-05-09 05:19 60.15282 18.37352 9471 ft 262 kts 183°
2026-05-09 05:19 60.13474 18.37092 9189 ft 260 kts 183°
2026-05-09 05:19 60.11678 18.36830 8923 ft 258 kts 182°
2026-05-09 05:20 60.09897 18.36569 8648 ft 256 kts 182°
2026-05-09 05:20 60.08147 18.36313 8381 ft 255 kts 182°
2026-05-09 05:20 60.06380 18.36063 8112 ft 254 kts 182°
2026-05-09 05:20 60.04625 18.35816 7850 ft 253 kts 182°
2026-05-09 05:21 60.02874 18.35567 7574 ft 251 kts 182°
2026-05-09 05:21 60.01133 18.35320 7313 ft 250 kts 182°
2026-05-09 05:21 59.99402 18.35074 7039 ft 249 kts 182°
2026-05-09 05:21 59.97680 18.34830 6775 ft 248 kts 182°
2026-05-09 05:22 59.95965 18.34588 6493 ft 247 kts 181°
2026-05-09 05:22 59.94253 18.34345 6205 ft 246 kts 181°
2026-05-09 05:22 59.92549 18.34103 5940 ft 245 kts 181°
2026-05-09 05:22 59.90852 18.33687 5633 ft 248 kts 194°
2026-05-09 05:23 59.89397 18.31837 5363 ft 255 kts 225°
2026-05-09 05:23 59.88430 18.28794 4917 ft 265 kts 242°
2026-05-09 05:23 59.87694 18.25451 4680 ft 263 kts 244°
2026-05-09 05:23 59.87011 18.22205 4567 ft 244 kts 244°
2026-05-09 05:24 59.86374 18.19196 4431 ft 229 kts 243°
2026-05-09 05:24 59.85764 18.16374 4330 ft 216 kts 243°
2026-05-09 05:24 59.85169 18.13674 4246 ft 213 kts 243°
2026-05-09 05:24 59.84562 18.10954 4019 ft 215 kts 243°
2026-05-09 05:25 59.83965 18.08282 3825 ft 209 kts 243°
2026-05-09 05:25 59.83383 18.05689 3610 ft 202 kts 242°
2026-05-09 05:25 59.81643 18.02119 3240 ft 173 kts 186°
2026-05-09 05:26 59.80467 18.01664 3049 ft 172 kts 189°
2026-05-09 05:26 59.79312 18.01174 2870 ft 166 kts 187°
2026-05-09 05:26 59.78215 18.00744 2665 ft 154 kts 186°
2026-05-09 05:26 59.77185 18.00359 2574 ft 150 kts 186°
2026-05-09 05:27 59.76161 17.99981 2361 ft 149 kts 186°
2026-05-09 05:27 59.75152 17.99613 2151 ft 145 kts 186°
2026-05-09 05:27 59.74163 17.99247 1921 ft 146 kts 187°
2026-05-09 05:27 59.73169 17.98867 1669 ft 147 kts 187°
2026-05-09 05:28 59.72180 17.98499 1572 ft 142 kts 185°
2026-05-09 05:28 59.71214 17.98155 1421 ft 141 kts 186°
2026-05-09 05:28 59.70242 17.97789 1250 ft 143 kts 185°
2026-05-09 05:28 59.69245 17.97508 1007 ft 149 kts 184°
2026-05-09 05:29 59.68241 17.97118 853 ft 147 kts 190°
2026-05-09 05:29 59.67239 17.96717 674 ft 148 kts 187°
2026-05-09 05:29 59.66207 17.96375 438 ft 151 kts 187°
2026-05-09 05:29 59.65161 17.96009 216 ft 154 kts 190°
2026-05-09 05:30 59.64142 17.95626 113 ft 136 kts 189°
2026-05-09 05:30 59.63418 17.95377 121 ft 75 kts 190°
2026-05-09 05:30 59.63071 17.95213 133 ft 42 kts 206°
2026-05-09 05:30 59.62873 17.94948 136 ft 16 kts 220°
2026-05-09 05:31 59.62846 17.94819 136 ft 10 kts 286°
2026-05-09 05:31 59.62923 17.94769 135 ft 15 kts
2026-05-09 05:31 59.63052 17.94814 125 ft 23 kts 12°
2026-05-09 05:31 59.63222 17.94886 124 ft 26 kts 12°
2026-05-09 05:32 59.63396 17.94943 120 ft 24 kts 10°
2026-05-09 05:32 59.63558 17.95001 115 ft 23 kts 11°
2026-05-09 05:32 59.63712 17.95060 110 ft 22 kts 11°
2026-05-09 05:32 59.63862 17.95120 107 ft 22 kts 12°
2026-05-09 05:33 59.64006 17.95170 105 ft 21 kts 10°
2026-05-09 05:33 59.64148 17.95220 106 ft 20 kts 11°
2026-05-09 05:33 59.64286 17.95269 105 ft 20 kts
2026-05-09 05:33 59.64420 17.95310 105 ft 19 kts 12°
2026-05-09 05:34 59.64547 17.95366 104 ft 18 kts 12°
2026-05-09 05:34 59.64678 17.95425 104 ft 21 kts 13°
2026-05-09 05:34 59.64819 17.95468 106 ft 20 kts
2026-05-09 05:34 59.64955 17.95511 110 ft 19 kts
2026-05-09 05:35 59.65083 17.95498 114 ft 15 kts 347°
2026-05-09 05:35 59.65149 17.95466 117 ft 8 kts 347°
2026-05-09 05:35 59.65188 17.95448 120 ft 4 kts 346°
2026-05-09 05:35 59.65208 17.95438 119 ft 3 kts 345°
2026-05-09 05:36 59.65245 17.95418 121 ft 12 kts 345°
2026-05-09 05:36 59.65379 17.95346 124 ft 25 kts 345°
2026-05-09 05:36 59.65547 17.95258 128 ft 24 kts 345°
2026-05-09 05:36 59.65695 17.95170 127 ft 21 kts 341°
2026-05-09 05:37 59.65740 17.94966 124 ft 17 kts 257°
2026-05-09 05:37 59.65712 17.94746 121 ft 16 kts 256°
2026-05-09 05:37 59.65688 17.94542 120 ft 15 kts 256°
2026-05-09 05:37 59.65665 17.94351 125 ft 14 kts 256°
2026-05-09 05:38 59.65642 17.94162 118 ft 15 kts 256°
2026-05-09 05:38 59.65615 17.93948 112 ft 18 kts 255°
2026-05-09 05:38 59.65581 17.93691 112 ft 19 kts 255°
2026-05-09 05:38 59.65547 17.93437 111 ft 19 kts 255°
2026-05-09 05:39 59.65515 17.93226 111 ft 11 kts 230°
2026-05-09 05:39 59.65456 17.93176 111 ft 9 kts 220°
2026-05-09 05:39 59.65429 17.93075 111 ft 0 kts 236°
2026-05-09 05:39 59.65425 17.93065 111 ft 3 kts 233°
2026-05-09 05:40 59.65409 17.93045 111 ft 0 kts 195°
2026-05-09 05:40 59.65403 17.93044 111 ft 3 kts 189°
2026-05-09 05:40 59.65387 17.93038 108 ft 1 kts 190°
2026-05-09 05:40 59.65384 17.93037 109 ft 0 kts 190°